Tracking 35334 objects as of 12-Sep-2026
HD Live streaming from Space Station
objects crossing your sky now

KUIPER-00268

Track KUIPER-00268 now!
10-day predictions
KUIPER-00268 is classified as:


NORAD ID: 67790
Int'l Code: 2026-030AC
Launch date: February 12, 2026
Source: France (FR)
Launch site: FRENCH GUIANA (FRGUI)
Your satellite tracking list
Your tracking list is empty




NASA's NSSDC Master Catalog

Two Line Element Set (TLE):
1 67790U 26030AC  26254.95717108  .00002155  00000-0  31158-3 0  9991
2 67790  51.9030  86.9892 0001008 114.7347 245.3721 14.79938937 33074
Source of the keplerian elements: AFSPC